Regional Weather Roundup
Issued by NWS San Diego, CA

Home | Current Version | Previous Version | Text Only | Print | Product List | Glossary On
Versions: 1 2 3 4 5 6 7 8 9 10 11 12 13 14 15 16 17 18 19 20 21 22 23 24 25 26 27 28 29 30 31 32 33 34 35 36 37 38 39 40 41 42 43 44 45 46 47 48 49 50
000
ASUS46 KSGX 161911
RWRSGX

SAN DIEGO HOURLY WEATHER ROUNDUP
NATIONAL WEATHER SERVICE SAN DIEGO CA
1100 AM PST SAT DEC 16 2017

NOTE: "FAIR" INDICATES FEW OR NO CLOUDS BELOW 12,000 FEET WITH NO
SIGNIFICANT WEATHER AND/OR OBSTRUCTIONS TO VISIBILITY.

CAZ042-043-060-061-PZZ750-775-162000-

GREATER SAN DIEGO AREA

CITY           SKY/WX    TMP DP  RH WIND       PRES   REMARKS
SAN DIEGO AP   PTSUNNY   62  52  69 S12       29.75F
NATIONAL CITY    N/A     64  53  68 S8        29.75F
CHULA VISTA      N/A     65  54  65 SE3       29.65F
IMPERIAL BEACH PTSUNNY   62  52  69 SW13      29.75F
BROWN FIELD    MOSUNNY   62  51  67 SE8       29.74F
MIRAMAR MCAS   PTSUNNY   66  52  60 S13G20    29.73F
MONTGOMERY FLD PTSUNNY   65  51  60 SE12      29.74F
GILLESPIE FLD  MOSUNNY   57  34  41 CALM      29.73F

$$

NORTH SAN DIEGO COUNTY

CITY           SKY/WX    TMP DP  RH WIND       PRES   REMARKS
CAMP PENDLETON PTSUNNY   66  50  56 SE12      29.72F
OCEANSIDE AP   NOT AVBL
OCEANSIDE HBR    N/A     62  50  66 NE12      29.74F
VISTA            N/A     63  51  66 CALM      29.71F
CARLSBAD       CLOUDY    62  51  67 SE13      29.72F
DEL MAR          N/A     62  54  74 SW3       29.74F
LA JOLLA SCRIP   N/A     63  53  70 S9        29.72F
FALLBROOK        N/A     64  53  67 CALM      29.75F
ESCONDIDO        N/A     63  50  63 CALM      29.73F
SAN MARCOS       N/A     61  50  68 SE7       29.74F
POWAY            N/A     61  50  69 CALM      29.77F

$$

EAST SAN DIEGO COUNTY

CITY           SKY/WX    TMP DP  RH WIND       PRES   REMARKS
RAMONA         PTSUNNY   58  45  62 E6        29.74F
SANTEE LAKES     N/A     58  40  52 CALM      29.74F
LA MESA          N/A     61  52  73 CALM      29.67F
JAMUL            N/A     60  49  68 CALM      29.73F
DESCANSO N       N/A     48  24  39 E9        29.68F
MT. LAGUNA OBS   N/A     40  20  43 SW6       29.67F
CAMPO            N/A     51  33  50 W6        29.73F

$$

ORANGE COUNTY AND THE LOS ANGELES BASIN

CITY           SKY/WX    TMP DP  RH WIND       PRES   REMARKS
JOHN WAYNE AP  MOSUNNY   65  49  56 SE9       29.70F
LAGUNA BEACH     N/A     65  55  70 CALM      29.66F
LAKE FOREST FR   N/A     62  43  50 SE3       29.57F
HUNTINGTON BCH   N/A     65  55  70 S2        29.72F
LOS ALAMITOS   SUNNY     65  50  56 SE8       29.70F
FULLERTON      SUNNY     66  48  52 SE7       29.70F
LONG BEACH     SUNNY     64  51  62 S8        29.71F
L.A. AP        MOSUNNY   64  50  60 SE8G18    29.72S
L.A. DOWNTOWN  SUNNY     65  47  52 CALM      29.71F

$$

THE INLAND EMPIRE

CITY           SKY/WX    TMP DP  RH WIND       PRES   REMARKS
CORONA         SUNNY     63  30  28 E5        29.72F
CHINO          MOSUNNY   65  21  18 E9        29.73F
ONTARIO        MOSUNNY   63  19  18 E13       29.72F
SAN BERNARDINO PTSUNNY  N/A N/A N/A SE6       29.74F
RIVERSIDE AP   PTSUNNY   65  32  29 E14       29.72F
MORENO VALLEY    N/A     60  36  41 E2        27.87F
MARCH ARB      MOSUNNY   60  34  38 SE5       29.73F
HORSETHIEF CYN   N/A     60  34  38 S7        29.72F
PERRIS           N/A     58  43  57 S3        29.69F
HEMET EAST       N/A     58  -1   9 CALM      30.17S
FRENCH VALLEY  FAIR      59  39  47 S10       29.73F
TEMECULA         N/A     60  44  54 S7        29.78F

$$

SAN BERNARDINO AND RIVERSIDE COUNTY MOUNTAINS

CITY           SKY/WX    TMP DP  RH WIND       PRES   REMARKS
BIG BEAR AP    CLOUDY    37  23  56 E6        29.81S WCI  33
ANGELUS OAKS     N/A     45  24  43 CALM      29.63F

$$

SOUTHERN DESERT INCLUDING THE COACHELLA VALLEY

CITY           SKY/WX    TMP DP  RH WIND       PRES   REMARKS
PALM SPRINGS   CLOUDY    61  27  27 CALM      29.74F
THOUSAND PALMS   N/A     56  28  34 NE1       29.71F
PALM DESERT      N/A     58  31  36 CALM      26.61
THERMAL        CLOUDY    55  35  47 NE7       29.74S
BLYTHE         MOSUNNY   60  20  21 NW8       29.74S
IMPERIAL AP    CLOUDY    60  32  34 CALM      29.71F
EL CENTRO NAS  CLOUDY    58  28  32 SE3       29.73F
YUMA AZ        PTSUNNY   67  22  18 NE7       29.71F
MEXICALI       CLOUDY    64  30  27 E8        29.72F

$$

UPPER DESERT

CITY           SKY/WX    TMP DP  RH WIND       PRES   REMARKS
HESPERIA         N/A     55  24  30 CALM      29.85F
APPLE VALLEY     N/A     55  25  31 E3        29.77F
PALMDALE       CLOUDY    55  30  38 W10       29.78F
LANCASTER      MOSUNNY   53  31  42 W13       29.77F
EDWARDS AFB    MOSUNNY   55  24  30 SE5       29.75F
DAGGETT        PTSUNNY   58  23  26 NW14      29.76S
29 PALMS N     LGT RAIN  50  32  50 NW7       29.83F
NEEDLES        MOSUNNY   64  10  12 NE5       29.75F

$$

REGIONAL REPORTS

CITY           SKY/WX    TMP DP  RH WIND       PRES   REMARKS
SANTA BARBARA  SUNNY     67  38  34 S8        29.72S
SANDBERG       MOSUNNY   46  32  58 N24       29.79F
LAS VEGAS NV   CLOUDY    55  16  21 CALM      29.78F
PHOENIX AZ     CLOUDY    59  25  27 E7        29.78F
TIJUANA        PTSUNNY   61  50  67 SE8       29.76F
ENSENADA NW      N/A     60  32  34 CALM      29.70F

$$

OFFSHORE ISLANDS

CITY           SKY/WX    TMP DP  RH WIND       PRES   REMARKS
CATALINA ARPT  PTSUNNY   55  48  77 SE13      29.71S
SAN NICOLAS IS MOSUNNY   60  59  96 NW21      29.71R

$$

MARINE AND OFFSHORE BUOY REPORTS

STATION/POSITION SKY/WX   TEMP    WIND        PRES    VSBY  SWELL
                          AIR SEA DIR/SP/G                  HT/PER/DIR
                          (F)     (DEG/KT/KT) (MB)    (MI)  (FT/S/D)
TANNER BANKS               60 62  270/ 19/ 23 1005.9F         8/320/15
S CLEMENTE BASIN           61 63  220/  8/ 10 1006.2F         5/280/16
SAN NICOLAS IS.               61                N/A           7/290/15
SO. S. ROSA ISLA           59 58  310/ 25/ 33 1006.7R        10/310/ 9
W. S. BARBARA CH           58 58  320/ 25/ 31 1007.4F        11/300/10
M. S. BARBARA CH           60 60  220/  4/  6 1007.6S         7/270/11
S. MONICA BASIN               62   80/ 12/ 16 1005.6F         5/270/ 7
S PEDRO CHANNEL               62                N/A           3/270/14
CMP PENDLETON NS              61                N/A           2/240/17
OCEANSIDE OFFSHR              62                N/A           2/260/17
TORREY PINES OTR              62                N/A           3/290/14
SAN DIEGO BAY                 63              1007.5F
POINT LOMA SOUTH              63                N/A           3/280/17

$$




USA.gov is the U.S. government's official web portal to all federal, state and local government web resources and services.